Time,TemperatureF,DewpointF,PressureIn,WindDirection,WindDirectionDegrees,WindSpeedMPH,WindSpeedGustMPH,Humidity,HourlyPrecipIn,Conditions,Clouds,dailyrainin,SoftwareType,DateUTC
2013-09-25 00:00:00,56.0,-99.9,29.99,SSE,150,15.0,-999.0,-999,-99.99,,,-99.99,,2013-09-25 05:00:00,
2013-09-25 00:53:00,56.0,-99.9,29.99,SSE,150,15.0,-999.0,-999,-99.99,,,-99.99,,2013-09-25 05:53:00,
2013-09-25 01:00:00,57.0,-99.9,29.98,South,180,9.0,-999.0,-999,-99.99,,,-99.99,,2013-09-25 06:00:00,
2013-09-25 01:42:00,57.0,-99.9,29.98,South,180,9.0,-999.0,-999,-99.99,,,-99.99,,2013-09-25 06:42:00,
2013-09-25 01:52:00,57.0,-99.9,29.98,South,180,9.0,-999.0,-999,-99.99,,,-99.99,,2013-09-25 06:52:00,
2013-09-25 02:00:00,58.0,-99.9,29.99,West,260,5.0,-999.0,-999,-99.99,,,-99.99,,2013-09-25 07:00:00,
2013-09-25 02:42:00,58.0,-99.9,29.99,West,260,5.0,-999.0,-999,-99.99,,,-99.99,,2013-09-25 07:42:00,
2013-09-25 02:53:00,58.0,-99.9,29.99,West,260,5.0,-999.0,-999,-99.99,,,-99.99,,2013-09-25 07:53:00,
2013-09-25 03:00:00,58.0,-99.9,29.98,South,190,11.0,-999.0,-999,-99.99,,,-99.99,,2013-09-25 08:00:00,
2013-09-25 03:42:00,58.0,-99.9,29.98,South,190,11.0,-999.0,-999,-99.99,,,-99.99,,2013-09-25 08:42:00,
2013-09-25 03:53:00,58.0,-99.9,29.98,South,190,11.0,-999.0,-999,-99.99,,,-99.99,,2013-09-25 08:53:00,
2013-09-25 04:00:00,57.0,-99.9,29.99,South,170,9.0,-999.0,-999,-99.99,,,-99.99,,2013-09-25 09:00:00,
2013-09-25 04:43:00,57.0,-99.9,29.99,South,170,9.0,-999.0,-999,-99.99,,,-99.99,,2013-09-25 09:43:00,
2013-09-25 04:54:00,57.0,-99.9,29.99,South,170,9.0,-999.0,-999,-99.99,,,-99.99,,2013-09-25 09:54:00,
2013-09-25 11:00:00,55.0,-99.9,30.01,NNW,340,5.0,-999.0,-999,-99.99,,,-99.99,,2013-09-25 16:00:00,
2013-09-25 11:43:00,55.0,-99.9,30.01,NNW,340,5.0,-999.0,-999,-99.99,,,-99.99,,2013-09-25 16:43:00,
2013-09-25 11:53:00,55.0,-99.9,30.01,NNW,340,5.0,-999.0,-999,-99.99,,,-99.99,,2013-09-25 16:53:00,
2013-09-25 12:00:00,54.0,-99.9,30.01,NNE,20,6.0,-999.0,-999,-99.99,,,-99.99,,2013-09-25 17:00:00,
2013-09-25 12:43:00,54.0,-99.9,30.01,NNE,20,6.0,-999.0,-999,-99.99,,,-99.99,,2013-09-25 17:43:00,
2013-09-25 12:52:00,54.0,-99.9,30.01,NNE,20,6.0,-999.0,-999,-99.99,,,-99.99,,2013-09-25 17:52:00,
2013-09-25 13:00:00,53.0,-99.9,30.00,NNE,30,11.0,-999.0,-999,-99.99,,,-99.99,,2013-09-25 18:00:00,
2013-09-25 13:42:00,53.0,-99.9,30.00,NNE,30,11.0,-999.0,-999,-99.99,,,-99.99,,2013-09-25 18:42:00,
2013-09-25 13:52:00,53.0,-99.9,30.00,NNE,30,11.0,-999.0,-999,-99.99,,,-99.99,,2013-09-25 18:52:00,
2013-09-25 14:00:00,54.0,-99.9,29.98,ENE,60,15.0,-999.0,-999,-99.99,,,-99.99,,2013-09-25 19:00:00,
2013-09-25 14:42:00,54.0,-99.9,29.98,ENE,60,15.0,-999.0,-999,-99.99,,,-99.99,,2013-09-25 19:42:00,
2013-09-25 14:53:00,54.0,-99.9,29.98,ENE,60,15.0,-999.0,-999,-99.99,,,-99.99,,2013-09-25 19:53:00,
2013-09-25 15:00:00,53.0,-99.9,29.97,ENE,60,13.0,-999.0,-999,-99.99,,,-99.99,,2013-09-25 20:00:00,
2013-09-25 15:43:00,53.0,-99.9,29.97,ENE,60,13.0,-999.0,-999,-99.99,,,-99.99,,2013-09-25 20:43:00,
2013-09-25 15:52:00,53.0,-99.9,29.97,ENE,60,13.0,-999.0,-999,-99.99,,,-99.99,,2013-09-25 20:52:00,
2013-09-25 16:00:00,54.0,-99.9,29.96,ENE,60,11.0,-999.0,-999,-99.99,,,-99.99,,2013-09-25 21:00:00,
2013-09-25 16:45:00,54.0,-99.9,29.96,ENE,60,11.0,-999.0,-999,-99.99,,,-99.99,,2013-09-25 21:45:00,
2013-09-25 16:55:00,54.0,-99.9,29.96,ENE,60,11.0,-999.0,-999,-99.99,,,-99.99,,2013-09-25 21:55:00,
2013-09-25 17:00:00,53.0,-99.9,29.96,ENE,70,10.0,-999.0,-999,-99.99,,,-99.99,,2013-09-25 22:00:00,
2013-09-25 17:43:00,53.0,-99.9,29.96,ENE,70,10.0,-999.0,-999,-99.99,,,-99.99,,2013-09-25 22:43:00,
2013-09-25 17:53:00,53.0,-99.9,29.96,ENE,70,10.0,-999.0,-999,-99.99,,,-99.99,,2013-09-25 22:53:00,
2013-09-25 18:00:00,53.0,-99.9,29.94,ENE,60,7.0,-999.0,-999,-99.99,,,-99.99,,2013-09-25 23:00:00,
2013-09-25 18:42:00,53.0,-99.9,29.94,ENE,60,7.0,-999.0,-999,-99.99,,,-99.99,,2013-09-25 23:42:00,
2013-09-25 18:53:00,53.0,-99.9,29.94,ENE,60,7.0,-999.0,-999,-99.99,,,-99.99,,2013-09-25 23:53:00,
2013-09-25 23:00:00,54.0,-99.9,29.97,NE,50,10.0,-999.0,-999,-99.99,,,-99.99,,2013-09-26 04:00:00,
2013-09-25 23:55:00,54.0,-99.9,29.97,NE,50,10.0,-999.0,-999,-99.99,,,-99.99,,2013-09-26 04:55:00,